Regional Weather Roundup
Issued by NWS

Home | Current Version | Previous Version | Graphics & Text | Print | Product List | Glossary On
Versions: 1 2 3 4 5 6 7 8 9 10 11 12 13 14 15 16 17 18 19 20 21 22 23 24 25 26 27 28 29 30 31 32 33 34 35 36 37 38 39 40 41 42 43 44 45 46 47 48 49 50
000
ASUS43 KTOP 260259
RWRKS

WEATHER ROUNDUP FOR KANSAS
NATIONAL WEATHER SERVICE GOODLAND KS
1000 PM CDT SAT MAR 25 2017

NOTE:  "FAIR" INDICATES FEW OR NO CLOUDS BELOW 12,000 FEET WITH NO
SIGNIFICANT WEATHER AND/OR OBSTRUCTIONS TO VISIBILITY.

KSZ001>006-013>018-027>032-041>047-260400-
NORTHWEST KANSAS

CITY           SKY/WX    TMP DP  RH WIND       PRES   REMARKS
GOODLAND       PTCLDY    43  34  70 SE5       29.88S
HAYS             N/A     46  38  73 E9        29.93R
HILL CITY      CLOUDY    38  37  97 E8        29.93R
RUSSELL        CLOUDY    43  38  82 E5        29.93R
$$

KSZ061>065-074>080-084>089-260400-
SOUTHWEST KANSAS

CITY           SKY/WX    TMP DP  RH WIND       PRES   REMARKS
DODGE CITY     CLOUDY    44  38  79 E8        29.91R
ELKHART          N/A     51  25  36 E13         N/A
GARDEN CITY    CLOUDY    47  38  71 E9        29.90R
GREAT BEND     CLOUDY    40  37  89 E7        29.93R
LIBERAL        PTCLDY    54  23  30 E5        29.89S
$$

KSZ066>073-081>083-090>101-260400-
SOUTHEAST KANSAS

CITY           SKY/WX    TMP DP  RH WIND       PRES   REMARKS
CHANUTE        CLOUDY    48  45  89 NW8       29.92S
COFFEYVILLE    CLOUDY    48  43  82 SW6       29.94S
HUTCHINSON     CLOUDY    44  40  85 N6        29.94R
NEWTON         CLOUDY    42  40  92 N8        29.94S
PARSONS        CLOUDY    48  44  86 SW3       29.94R
WICHITA INTL   CLOUDY    45  41  86 N7        29.93S
WICHITA JABRA  CLOUDY    44  41  89 N8        29.94R
WICHITA MCCONL CLOUDY    45  41  87 N8        29.93S
WINFIELD       CLOUDY    47  41  80 NE5       29.94F
$$

KSZ007>012-019>026-033>040-048>060-102>105-260400-
NORTHEAST KANSAS

CITY           SKY/WX    TMP DP  RH WIND       PRES   REMARKS
CONCORDIA      CLOUDY    41  41 100 N8        29.95R FOG
EMPORIA        CLOUDY    44  44 100 N7        29.91S
LAWRENCE       CLOUDY    45  43  93 NW9       29.91F
MANHATTAN      CLOUDY    45  42  89 N3        29.94R
OLATHE IND     CLOUDY    45  43  93 NW8       29.90S
OLATHE EXE     CLOUDY    45  45 100 NW8       29.88S
SALINA         CLOUDY    44  41  89 N8        29.95R FOG
TOPEKA BILLARD CLOUDY    45  43  93 NW8       29.92S
TOPEKA FORBES  CLOUDY    46  43  89 N9        29.91S
$$



USA.gov is the U.S. government's official web portal to all federal, state and local government web resources and services.